Weather History for Safford, AZ

Change the Weather History Date:

Thursday, July 25, 2013

  Actual Average Record
Temperature  
Mean Temperature 82 °F -  
Max Temperature 90 °F 97 °F 108 °F (1988)
Min Temperature 73 °F 67 °F 59 °F (1973)
Cooling Degree Days 16    
Growing Degree Days 32 (Base 50)    
Moisture  
Dew Point 62 °F    
Average Humidity 52    
Maximum Humidity 71    
Minimum Humidity 39    
Precipitation  
Precipitation 0.00 in - - ()
Sea Level Pressure  
Sea Level Pressure 29.90 in    
Wind  
Wind Speed 10 mph (SE)    
Max Wind Speed 14 mph    
Max Gust Speed 18 mph    
Visibility 10 miles    
Events      
Averages and records for this station are not official NWS values.
T = Trace of Precipitation, MM = Missing Value Source: NWS Daily Summary

Daily Weather History Graph

Daily Weather History Graph

Search for Another Location

Airport:

Trip Planner

Search our weather history database for the weather conditions in past years. The results will help you decide how hot, cold, wet, or windy it might be!

Date:

Astronomy

Jul. 25, 2013 Rise Set
Actual Time 5:27 AM MST 7:22 PM MST
Civil Twilight 5:00 AM MST 7:49 PM MST
Nautical Twilight 4:27 AM MST 8:22 PM MST
Astronomical Twilight 3:51 AM MST 8:57 PM MST
Moon 9:21 PM MST (7/25) 8:46 AM MST (7/25)
Length of Visible Light 14h 49m
Length of Day
13h 54m
Waning Gibbous, 87% of the Moon is Illuminated
Jul 25
Waning Gibbous
Jul 29
Last Quarter
Aug 6
New
Aug 14
First Quarter
Aug 20
Full

Hourly Weather History & Observations

Time (MST) Temp. Heat Index Dew Point Humidity Pressure Visibility Wind Dir Wind Speed Gust Speed Precip Events Conditions
12:51 AM 79.0 °F - 61.0 °F 54% 29.85 in 10.0 mi East 12.7 mph - N/A   Clear
1:51 AM 78.1 °F - 61.0 °F 56% 29.86 in 10.0 mi East 13.8 mph - N/A   Mostly Cloudy
2:51 AM 77.0 °F - 61.0 °F 58% 29.86 in 10.0 mi SE 13.8 mph - N/A   Overcast
3:51 AM 75.9 °F - 61.0 °F 60% 29.88 in 10.0 mi East 12.7 mph - N/A   Clear
4:51 AM 73.9 °F - 64.0 °F 71% 29.89 in 10.0 mi ESE 9.2 mph - 0.00 in   Partly Cloudy
5:51 AM 73.9 °F - 64.0 °F 71% 29.90 in 10.0 mi East 6.9 mph - N/A   Mostly Cloudy
6:51 AM 75.9 °F - 62.1 °F 62% 29.92 in 10.0 mi East 9.2 mph - N/A   Clear
7:51 AM 79.0 °F - 62.1 °F 56% 29.93 in 10.0 mi ESE 9.2 mph - N/A   Clear
8:51 AM 79.0 °F - 63.0 °F 58% 29.95 in 10.0 mi SE 10.4 mph - N/A   Partly Cloudy
9:51 AM 84.0 °F 84.9 °F 63.0 °F 49% 29.96 in 10.0 mi SE 11.5 mph 18.4 mph N/A   Partly Cloudy
10:51 AM 84.9 °F 85.4 °F 62.1 °F 46% 29.96 in 10.0 mi SE 10.4 mph - N/A   Mostly Cloudy
11:51 AM 84.9 °F 85.4 °F 62.1 °F 46% 29.94 in 10.0 mi SE 12.7 mph 18.4 mph N/A   Clear
12:51 PM 87.1 °F 87.8 °F 63.0 °F 44% 29.93 in 10.0 mi SSE 11.5 mph 16.1 mph N/A   Partly Cloudy
1:51 PM 84.9 °F 85.9 °F 63.0 °F 48% 29.91 in 10.0 mi South 6.9 mph - N/A   Clear
2:51 PM 88.0 °F 88.4 °F 62.1 °F 42% 29.88 in 10.0 mi SSE 3.5 mph - N/A   Clear
3:51 PM 89.1 °F 89.3 °F 62.1 °F 40% 29.88 in 10.0 mi SE 5.8 mph - N/A   Clear
4:51 PM 90.0 °F 90.3 °F 62.1 °F 39% 29.87 in 10.0 mi ESE 6.9 mph - N/A   Clear
5:51 PM 89.1 °F 89.0 °F 61.0 °F 39% 29.87 in 10.0 mi Calm Calm - N/A   Clear
6:51 PM 88.0 °F 87.9 °F 61.0 °F 40% 29.87 in 10.0 mi NW 4.6 mph - N/A   Clear
7:51 PM 87.1 °F 87.0 °F 61.0 °F 41% 29.88 in 10.0 mi NW 5.8 mph - N/A   Clear
8:51 PM 86.0 °F 86.8 °F 63.0 °F 46% 29.90 in 10.0 mi West 4.6 mph - N/A   Clear
9:51 PM 82.0 °F 83.8 °F 64.9 °F 56% 29.92 in 10.0 mi West 3.5 mph - N/A   Clear
10:51 PM 81.0 °F 82.5 °F 64.0 °F 56% 29.91 in 10.0 mi NW 5.8 mph - N/A   Clear
11:51 PM 80.1 °F 81.9 °F 64.9 °F 60% 29.91 in 10.0 mi NW 5.8 mph - N/A   Clear